Skip Navigation Links
NOAA logo - Click to go to the NOAA homepage
NOAA's National Weather Service
Alaska Aviation Weather Unit
  NWS logo - Click to go to the NWS homepage
Left Navbar Graphic     22 AKDT = 06 GMT

   
NOAA is celebrating 200 years of science, service, and stewardship. Visit the NOAA 200th celebration Web site to learn more.
USA.gov is the U.S. Government's official Web portal to all Federal, state and local government Web resources and services.
Facebook
NWS on Facebook

Important Change Regarding the AAWU Web Presence

 

Over the last several months, the AAWU has been working to navigate its webpages to a nationally supported server. Security, as well as other needs, have necessitated the change.  In the process, we have made an effort to enhance the functionality of our website, as well as some of our products. As of June 20, 2017, aawu.arh.noaa.gov will be discontinued. The new AAWU web address is weather.gov/aawu. It is now live and will run in-parallel with the old site until it is discontinued. Please send any feedback or questions regarding the new webpages to nws.ar.aawu.webauthors@noaa.gov.  Thank you for your patience during this time of transition.
AAWU Home :: Display TAF Add Bookmark
METAR PAEG 280053Z AUTO 16005KT 4SM -RA BKN035 BKN043 OVC050 09/04 A3005
     RMK AO2 RAE2358B38 SLP183 P0002 T00940039 TSNO=

METAR PAEG 280153Z AUTO 00000KT 10SM FEW044 OVC060 11/04 A3005 RMK AO2
     RAE34 SLP182 P0001 T01110039 TSNO=

METAR PAEG 280253Z AUTO 28006KT 10SM FEW040 BKN055 BKN070 12/03 A3005
     RMK AO2 SLP182 60003 T01170033 51010 TSNO=

METAR PAEG 280353Z AUTO 00000KT 10SM FEW100 SCT120 11/02 A3004 RMK AO2
     SLP177 T01110022 TSNO=

METAR PAEG 280453Z AUTO 00000KT 10SM CLR 12/03 A3003 RMK AO2 SLP175
 T01170028 TSNO=

METAR PAEG 280553Z AUTO 00000KT 10SM CLR 10/02 A3003 RMK AO2 SLP173
 60003 T01000022 10133 20094 56006 TSNO=


NOAA's National Weather Service
Alaska Aviation Weather Unit
6930 Sand Lake Road
Anchorage, AK 99502-1845
Disclaimer
Credits
Glossary
Privacy Policy
About Us
Career Opportunities
Contact AAWU Internet Services Site last modified: April, 17th 2012